Location: Grodowice
(50.2683°N, 20.5908°E)
Time: 12:29:27
(UTC+00:00)

Daily predictions for brighter satellites

Satellite Brightness Start Highest point End
(mag) Time Altitude Azimuth Time Altitude Azimuth Time Altitude Azimuth
BREEZE-M DEB (TANK) 3.6 19:07:48 10° SW 19:10:46 55° SSE 19:20:18 10° ENE
USA 281 4.2 19:08:51 10° ESE 19:14:48 38° NE 19:20:45 10° NNW
Cosmos 1975 4.4 19:11:52 10° NNE 19:14:53 21° ENE 19:17:53 10° ESE
Cosmos 1302 Rocket 4.1 19:12:11 10° NNW 19:17:24 75° ENE 19:22:37 10° SSE
NOSS 2-1 (C) 3.5 19:16:23 10° NW 19:20:06 88° NE 19:25:12 10° SE
MOS 1 Rocket 4.2 19:15:45 10° SE 19:20:42 43° ENE 19:25:47 10° N
Cosmos 1943 3.8 19:21:23 10° SW 19:27:00 64° WNW 19:32:39 10° NNE
Meteor 1-10 Rocket 4.3 19:23:16 10° S 19:28:57 87° E 19:34:35 10° NNE
MetOp-B 4.4 19:24:22 10° S 19:29:44 75° WSW 19:35:07 10° NNW
Cosmos 1536 3.1 19:25:56 10° NNW 19:29:50 69° W 19:33:45 10° S
Cosmos 2279 Rocket 4.3 19:23:45 10° NNW 19:29:56 73° W 19:36:06 10° S
Nadezhda 4 Rocket 4.2 19:26:46 10° SSE 19:32:45 53° E 19:38:50 10° NNE
Meteor 2-10 4.1 19:28:42 10° NNW 19:34:13 87° ENE 19:39:29 10° SSE
Cosmos 1340 2.4 19:32:12 10° N 19:35:36 71° ENE 19:38:58 10° SSE
FALCON 9 R/B 4.4 19:33:13 10° SW 19:37:29 20° S 19:46:01 10° SE
Meteor 1-11 Rocket 4.1 19:32:02 10° NNW 19:37:44 72° W 19:43:31 10° S
Spot 2 Rocket 3.6 19:32:48 10° SSE 19:37:48 69° ENE 19:42:50 10° N
Okean-O 3.9 19:34:34 10° SSW 19:38:42 39° W 19:42:52 10° NNW
USA 245 2.1 19:36:53 10° SSE 19:39:12 88° E 19:41:55 10° NNW
Landsat 4 3.5 19:35:47 10° SSE 19:39:15 69° ENE 19:42:43 10° N
Cosmos 1500 Rocket 3.6 19:35:13 10° NNW 19:39:33 80° W 19:43:50 10° S
Cosmos 1697 Rocket 3.8 19:38:44 10° NNW 19:43:51 34° NE 19:48:55 10° ESE
SPOT 5 3.3 19:39:32 10° S 19:43:52 52° W 19:48:07 10° NNW
Cosmos 1626 3.5 19:45:10 12° SE 19:47:02 18° E 19:49:21 10° NE
Sich 1 3.1 19:43:04 10° NNW 19:47:28 80° W 19:51:49 10° S
NOSS 3-3 (C) 4.3 19:43:28 10° S 19:48:23 37° ESE 19:54:04 10° NE
Cosmos 1726 4.0 19:48:09 10° NW 19:50:37 21° W 19:53:04 10° SW
Cosmos 1805 Rocket 3.8 19:46:47 10° NNW 19:51:11 74° W 19:55:35 10° S
Cosmos 1980 Rocket 3.9 19:49:04 10° NNW 19:53:41 24° NE 19:58:17 10° E
Cosmos 1633 Rocket 3.9 19:50:15 10° N 19:54:24 38° ENE 19:57:53 14° SE
Cosmos 1733 3.4 19:52:37 10° NNW 19:56:05 61° W 19:59:31 10° S
Cosmos 1666 Rocket 3.9 19:56:08 10° N 20:00:21 50° ENE 20:03:46 15° SSE
SL-8 R/B 3.7 19:55:46 10° W 20:00:30 69° S 20:05:15 10° ESE
USA 234 4.1 19:54:19 10° ENE 20:00:40 55° NNW 20:07:00 10° W
Ariane Rocket 3.1 19:56:01 10° SSE 20:01:05 81° WSW 20:06:14 10° NNW
Cosmos 44 Rocket 3.8 19:57:56 10° NW 20:02:50 53° NE 20:07:10 12° ESE
Lacrosse 5 rocket 2.8 19:59:31 10° NW 20:03:30 37° NNE 20:07:22 10° E
Meteor 2-4 Rocket 4.0 20:04:41 10° S 20:10:29 59° E 20:16:18 10° NNE
Cosmos 2026 Rocket 4.2 20:05:13 11° SSE 20:11:08 55° E 20:17:11 10° NNE
Cosmos 1674 4.4 20:11:20 13° ESE 20:12:38 15° E 20:14:45 10° NE
ERS-1 Rocket 3.8 20:08:51 10° S 20:13:41 47° W 20:18:34 10° NNW
SPOT 3 Rocket 3.8 20:10:36 11° S 20:15:30 68° WSW 20:20:39 10° NNW
USA 59 Rocket 1.1 20:12:22 10° WNW 20:16:08 38° SW 20:20:16 14° S
Cosmos 614 Rocket 4.0 20:12:08 10° SSW 20:17:20 88° WNW 20:22:37 10° NNE
Lacrosse 4 Rocket 1.8 20:14:35 10° NW 20:18:35 52° WSW 20:21:37 17° S
Cosmos 1340 Rocket 3.6 20:14:42 10° SSW 20:18:36 52° WNW 20:22:31 10° N
Cosmos 1818 3.5 20:13:29 10° SSW 20:18:54 70° SE 20:24:22 10° NE
Spot 1 4.0 20:14:53 10° NNE 20:19:00 63° ESE 20:22:51 12° S
Meteor 1-27 Rocket 4.3 20:15:48 10° SSW 20:21:14 58° WNW 20:26:46 10° N
IRIDIUM 106 4.3 20:23:22 10° N 20:28:38 82° E 20:32:49 16° S
H-2A R/B 4.2 20:25:54 12° ESE 20:28:50 24° ENE 20:32:17 10° N
Terra 2.9 20:24:35 10° SSW 20:28:58 38° W 20:33:24 10° NNW
Cosmos 1805 3.8 20:26:08 10° NNW 20:29:44 49° W 20:32:42 14° SSW
Cosmos 1833 Rocket 3.1 20:26:09 14° S 20:30:38 43° ESE 20:35:56 10° NE
Cosmos 1766 3.4 20:29:06 10° N 20:32:49 56° ENE 20:34:59 23° SSE
Cosmos 1656 4.0 20:27:35 10° NW 20:32:57 59° WSW 20:37:08 17° S
Cosmos 1269 Rocket 4.0 20:33:01 10° SSW 20:38:15 76° ESE 20:43:33 10° NNE
Cosmos 2082 Rocket 3.8 20:42:10 15° ESE 20:44:08 18° E 20:47:53 10° ENE
Cosmos 1553 Rocket 4.1 20:40:14 10° N 20:46:19 67° ENE 20:50:36 20° SSE
Cosmos 1470 3.4 20:43:42 10° N 20:47:12 39° ENE 20:48:57 23° SE
Landsat 5 3.5 20:43:57 10° N 20:47:44 70° WNW 20:51:05 13° SSW
DELTA 2 R/B (1) 4.5 20:43:53 10° SW 20:48:29 26° S 20:50:45 20° SE
Cosmos 1151 Rocket 4.3 20:44:41 10° SW 20:48:45 39° WNW 20:52:49 10° N
Cosmos 1975 3.8 20:47:14 10° NNW 20:50:56 40° W 20:53:47 15° SSW
Cosmos 2360 4.3 20:45:27 10° NNW 20:51:09 70° WSW 20:55:00 21° SSE
GEOS 3 Rocket 3.8 20:52:18 10° NE 20:57:20 49° SE 21:01:25 15° SSW
Meteor 1-18 Rocket 4.5 20:52:54 11° SSW 20:58:39 76° WNW 21:04:35 10° N
USA 281 3.5 20:54:10 19° S 20:59:02 61° WSW 21:05:36 10° NNW
Cosmos 1908 3.8 21:00:14 10° N 21:03:38 39° ENE 21:05:04 26° SE
NOSS 3-3 (A) 4.0 20:59:33 10° SW 21:05:07 77° NW 21:11:43 10° NE
ARIANE 5 R/B 2.6 21:02:57 26° SSE 21:05:19 77° ENE 21:09:39 10° NNW
Cosmos 2285 Rocket 4.3 21:03:59 21° S 21:08:03 51° ESE 21:14:11 10° NNE
Cosmos 1092 Rocket 4.4 21:01:49 10° SSW 21:08:03 64° WNW 21:14:23 10° N
Cosmos 1328 Rocket 4.1 21:05:06 14° SSW 21:08:39 55° WNW 21:12:54 10° N
H-2A R/B 4.4 21:10:33 10° ENE 21:11:35 11° E 21:12:38 10° E
Cosmos 1023 Rocket 4.5 21:08:24 20° S 21:12:00 68° ESE 21:17:11 10° NNE
CZ-2C R/B 3.6 21:08:42 10° NNE 21:13:11 71° ESE 21:15:38 26° S
BREEZE-M DEB (TANK) 3.4 21:15:40 34° SSE 21:16:07 35° SE 21:21:21 10° ENE
Cosmos 1140 Rocket 3.4 21:14:22 21° S 21:17:54 72° ESE 21:23:07 10° NNE
Cosmos 1515 Rocket 3.5 21:17:02 25° S 21:19:30 87° W 21:23:51 10° N
Cosmos 1626 3.5 21:17:57 12° SW 21:20:23 28° WNW 21:23:14 10° N
NOSS 3-4 (A) 3.8 21:14:01 10° NW 21:20:48 78° SW 21:26:14 22° SSE
NOSS 3-4 (C) 3.8 21:14:07 10° NW 21:20:54 79° SW 21:26:21 22° SSE
Cosmos 2266 Rocket 4.3 21:17:38 24° SSE 21:21:18 55° E 21:27:26 10° NNE
Spot 4 4.1 21:19:17 25° SE 21:21:53 59° ENE 21:26:36 10° N
Cosmos 1707 2.5 21:26:10 37° S 21:27:29 75° E 21:31:08 10° NNE
Cosmos 1697 Rocket 3.1 21:22:36 10° NW 21:28:05 53° WSW 21:31:08 25° S
Cosmos 2322 Rocket 4.3 21:23:56 10° NNW 21:28:18 22° NE 21:32:40 10° E
OPS 6432 4.4 21:25:43 10° NW 21:28:51 63° NE 21:29:58 35° ESE
Cosmos 1400 Rocket 4.2 21:27:50 22° ESE 21:28:52 25° E 21:32:07 10° NE
PSLV R/B 3.8 21:24:54 10° NNE 21:28:58 80° ESE 21:30:48 31° S
Cosmos 1470 Rocket 4.5 21:25:01 10° NNW 21:29:12 41° W 21:31:41 21° SSW
BREEZE-M DEB (TANK) 2.3 21:22:55 10° WSW 21:29:59 88° SSE 21:32:30 10° ENE
Cosmos 1869 Rocket 3.6 21:26:35 10° N 21:30:57 70° ENE 21:32:56 32° SSE
Meteor 1-15 Rocket 4.4 21:25:39 10° N 21:31:14 62° ENE 21:34:24 26° SSE
Cosmos 1300 4.1 21:28:15 10° NNE 21:31:18 25° ENE 21:32:38 20° ESE
In-Cosmos 22 4.5 21:31:21 26° SSE 21:34:26 57° E 21:40:01 10° NNE
Cosmos 1441 Rocket 3.0 21:33:00 10° N 21:36:35 72° ENE 21:37:42 41° SSE
Orbus 7S? 2.9 21:33:19 10° SW 21:38:00 84° SSE 21:40:51 10° ENE
Cosmos 1980 Rocket 2.2 21:32:40 10° NNW 21:38:25 85° WSW 21:41:38 27° SSE
Lacrosse 5 rocket 1.2 21:38:00 10° WNW 21:42:13 88° SW 21:44:16 29° SE
SL-8 R/B 4.3 21:38:13 10° W 21:42:34 36° SSW 21:43:39 32° S
USA 234 4.1 21:36:50 10° E 21:43:09 52° N 21:49:28 10° WNW
Cosmos 2228 Rocket 4.1 21:41:50 26° SE 21:43:27 34° E 21:47:32 10° NNE
Cosmos 2333 Rocket 4.4 21:39:14 10° NNW 21:43:36 22° NE 21:47:58 10° E
Cosmos 44 Rocket 4.4 21:39:49 10° NW 21:44:04 30° WSW 21:45:49 23° SSW
Cosmos 1655 Rocket 4.3 21:41:21 26° SSE 21:44:56 58° E 21:51:12 10° NNE
Cosmos 1842 3.8 21:44:35 26° SW 21:46:21 49° WNW 21:49:57 10° N
Cosmos 1674 3.5 21:44:53 23° SW 21:46:35 41° WNW 21:49:55 10° N
Cosmos 540 Rocket 3.6 21:42:43 10° NNW 21:47:53 69° ENE 21:50:44 27° SE
Cosmos 1763 Rocket 3.5 21:44:49 10° NNW 21:50:10 88° WSW 21:52:51 30° SSE
Cosmos 468 Rocket 4.1 21:47:30 10° NNW 21:52:48 70° ENE 21:55:43 27° SE
Cosmos 1933 Rocket 4.3 21:50:01 10° NNW 21:54:09 43° W 21:56:09 26° SSW
GP-B 3.6 21:55:00 10° NNE 21:59:17 48° E 22:00:59 31° SE
Cosmos 407 Rocket 3.6 21:56:19 22° SSW 21:59:45 79° WNW 22:05:00 10° NNE
SL-14 R/B 3.8 22:01:00 35° SE 22:01:58 44° E 22:05:37 10° NNE
H-2A R/B 3.2 22:01:54 30° SSW 22:03:32 45° W 22:07:40 10° NNW
Aureole 3 4.2 22:04:37 24° E 22:04:54 24° E 22:07:37 10° NNE
Cosmos 2369 3.7 22:00:17 10° NNW 22:05:59 70° WSW 22:08:52 30° S
Cosmos 1862 Rocket 4.3 22:05:04 30° SE 22:06:31 40° E 22:10:36 10° NNE
Cosmos 1607 4.4 22:00:47 10° SW 22:07:13 65° NW 22:13:42 10° NE
Cosmos 1954 Rocket 4.3 22:05:17 31° S 22:07:34 55° ESE 22:12:45 10° NNE
Cosmos 1455 4.3 22:05:27 10° NNE 22:07:47 17° ENE 22:09:28 13° E
Cosmos 1190 Rocket 4.0 22:10:54 30° SSW 22:13:37 80° ESE 22:18:56 10° NNE
ALOS 2 2.7 22:12:16 36° S 22:13:57 65° WSW 22:18:21 10° NNW
Cosmos 1833 Rocket 3.9 22:09:22 10° WSW 22:14:37 40° NW 22:19:55 10° NNE
Cosmos 2219 Rocket 4.4 22:12:04 10° NNW 22:16:22 22° NE 22:20:41 10° E
ATLAS 2AS CENTAUR R/B 4.0 22:10:53 10° NW 22:17:22 39° NNE 22:23:36 10° E
COSMOS 2406 3.2 22:15:19 29° SSW 22:18:20 71° ESE 22:24:05 10° NNE
SL-16 R/B 2.7 22:12:48 10° NNW 22:18:25 56° NE 22:22:42 17° SE
Cosmos 1758 3.1 22:17:03 10° NNW 22:20:54 79° W 22:22:01 45° S
PSLV R/B 3.7 22:17:27 10° NNE 22:21:53 61° ESE 22:23:26 37° SSE
Meteor 1-12 Rocket 4.4 22:17:42 10° NNW 22:23:38 71° W 22:26:45 29° S
Meteor 1-23 Rocket 4.2 22:20:52 29° SSW 22:23:50 88° WNW 22:29:31 10° NNE
Cosmos 2082 Rocket 2.2 22:23:57 25° SSW 22:27:28 86° WNW 22:33:14 10° NNE
Meteor 2-20 4.4 22:21:49 10° N 22:28:01 87° W 22:31:23 29° S
Cosmos 2251 Rocket 4.1 22:24:49 18° SW 22:28:38 53° WNW 22:33:51 10° NNE
CZ-2C R/B 4.2 22:26:20 28° SSE 22:29:05 70° E 22:50:49 10° N
Cosmos 1707 Rocket 3.5 22:28:05 38° S 22:29:47 82° E 22:34:16 10° NNE
Cosmos 2360 Rocket 3.4 22:25:13 10° NNW 22:30:32 39° NE 22:35:49 10° ESE
Meteor 2-10 Rocket 4.0 22:30:23 10° NNW 22:36:07 59° W 22:38:54 29° SSW
Okean 2 4.2 22:38:45 30° SE 22:39:57 39° E 22:43:41 10° NNE
Okean 3 3.4 22:41:11 41° S 22:42:31 73° E 22:46:38 10° NNE
Meteor 1-4 Rocket 3.3 22:42:38 28° E 22:42:47 28° E 22:45:24 10° NNE
H-2A R/B 2.0 22:43:34 10° NNE 22:48:01 83° ESE 22:49:42 37° S
USA 267 3.9 22:42:29 10° ENE 22:48:28 37° SE 22:51:04 27° S
Nadezhda 1 Rocket 4.5 22:43:31 10° N 22:49:51 57° ENE 22:54:10 21° SSE
Cosmos 1315 Rocket 3.7 22:49:16 29° SE 22:50:28 37° E 22:54:08 10° NNE
Cosmos 2237 4.2 22:47:32 10° NNW 22:53:18 80° WSW 22:56:34 27° SSE
Cosmos 1346 Rocket 3.1 22:54:10 10° NNW 22:57:57 50° W 22:58:57 39° SW
Cosmos 1908 Rocket 3.7 22:53:54 10° N 22:58:19 70° ENE 23:00:17 32° SSE
Cosmos 968 Rocket 4.5 22:56:50 24° SE 22:58:58 34° ESE 23:03:35 10° NE
Cosmos 1733 Rocket 3.9 22:57:41 10° NNW 23:01:43 38° W 23:03:12 29° SW
SL-4 R/B 3.5 23:02:20 23° SE 23:02:20 23° SE 23:05:28 10° E
Helios 1A Rocket 3.9 23:01:29 19° SE 23:03:43 38° ENE 23:07:17 10° N
Cosmos 2278 3.8 22:58:35 10° NW 23:04:13 60° WSW 23:07:01 29° S
Cosmos 1400 Rocket 4.1 23:02:59 22° WSW 23:04:46 33° WNW 23:08:22 10° N
Cosmos 1244 Rocket 4.5 23:02:01 28° SSW 23:05:29 81° W 23:11:46 10° N
Cosmos 1300 3.9 23:03:00 10° NW 23:05:59 25° W 23:06:40 23° WSW
Cosmos 1850 Rocket 4.2 23:10:20 31° S 23:12:49 63° ESE 23:18:00 10° NNE
Cosmos 2322 Rocket 2.2 23:07:29 10° NNW 23:13:11 86° ENE 23:17:16 20° SSE
Cosmos 841 Rocket 3.7 23:08:39 10° NNW 23:13:46 55° WSW 23:16:05 31° S
Cosmos 1408 4.2 23:15:08 16° ESE 23:15:56 18° E 23:18:02 10° NE
Resurs 1-4 Rocket 4.3 23:13:43 10° NE 23:16:44 15° E 23:19:44 10° ESE
Cosmos 1242 Rocket 3.2 23:19:14 28° ESE 23:19:38 29° E 23:22:10 10° NNE
Okean 1-7 3.0 23:18:10 35° SSW 23:19:54 74° W 23:24:16 10° N
Lacrosse 5 rocket 3.1 23:17:11 10° W 23:19:04 17° WSW 23:19:04 17° WSW
Cosmos 1980 Rocket 4.0 23:18:15 10° WNW 23:21:33 16° W 23:23:22 14° WSW
Cosmos 2228 Rocket 4.5 23:19:15 19° WSW 23:21:38 30° WNW 23:25:38 10° N
Cosmos 1741 Rocket 4.0 23:19:46 30° S 23:22:21 71° ESE 23:27:38 10° NNE
CZ-2D R/B 4.3 23:21:04 10° NE 23:24:37 17° E 23:28:08 10° SE
USA 234 3.3 23:19:17 10° ESE 23:25:53 84° NNE 23:32:28 10° WNW
SL-27 R/B 3.1 23:27:58 29° ESE 23:28:10 30° ESE 23:30:41 10° NE
Cosmos 2333 Rocket 2.3 23:23:01 10° NNW 23:28:47 82° ENE 23:33:44 14° SSE
Cosmos 1238 4.1 23:26:42 10° N 23:30:03 85° W 23:30:45 51° S
Cosmos 1953 2.6 23:27:11 10° NNW 23:30:58 49° W 23:32:08 35° SW
Timation 1 Rocket 4.3 23:28:39 27° SSW 23:32:00 73° ESE 23:37:58 10° NE
Genesis I 2.8 23:33:03 41° SW 23:34:11 89° ESE 23:37:46 10° NE
Cosmos 1709 Rocket 4.3 23:30:45 22° SSE 23:34:53 63° E 23:41:12 10° NNE
BREEZE-M DEB (TANK) 4.0 23:34:39 33° S 23:35:23 36° SE 23:41:26 10° ENE
IDEFIX/ARIANE 42P 4.0 23:34:33 10° NE 23:39:06 29° E 23:42:54 13° SSE
Cosmos 1703 Rocket 3.7 23:38:29 31° SSW 23:40:31 70° WNW 23:45:00 10° N
SL-19 R/B 4.1 23:36:50 10° NNE 23:40:49 88° ESE 23:42:10 37° SSW
Cosmos 1455 2.7 23:39:11 10° NNW 23:42:27 38° W 23:43:13 33° SW
Cosmos 1300 Rocket 3.4 23:40:23 10° N 23:44:43 89° E 23:47:00 27° S
ADEOS II 4.3 23:42:30 10° NE 23:45:54 17° E 23:49:17 10° SE
SJ 16-02 1.5 23:45:36 30° S 23:47:35 62° ESE 23:51:52 10° NNE
RESURS DK-1 2.2 23:44:57 10° NW 23:49:00 68° WSW 23:51:06 27° SSE
Cosmos 1833 4.5 23:48:57 24° S 23:52:14 58° ESE 23:57:45 10° NE
